Regional Weather Roundup
Issued by NWS Columbia, SC

Home | Current Version | Previous Version | Text Only | Print | Product List | Glossary On
Versions: 1 2 3 4 5 6 7 8 9 10 11 12 13 14 15 16 17 18 19 20 21 22 23 24 25 26 27 28 29 30 31 32 33 34 35 36 37 38 39 40 41 42 43 44 45 46 47 48 49 50
000
ASUS42 KCAE 222010
RWRCAE
REGIONAL WEATHER ROUNDUP
NATIONAL WEATHER SERVICE COLUMBIA SC
400 PM EDT TUE JUL 22 2014

NOTE: "FAIR" INDICATES FEW OR NO CLOUDS BELOW 12,000 FEET WITH NO
SIGNIFICANT WEATHER AND/OR OBSTRUCTIONS TO VISIBILITY.

NOT ALL STATIONS ARE QUALITY CONTROLLED BY THE NATIONAL
WEATHER SERVICE. USE DATA WITH CAUTION...ESPECIALLY
DEWPOINT OBSERVATIONS.

SCZ001>056-GAZ040-063>065-077-222100-
...UPSTATE SOUTH CAROLINA...

CITY           SKY/WX    TMP DP  RH WIND       PRES   REMARKS
ANDERSON       CLOUDY    83  70  64 E7        30.11F
LIBERTY        FAIR      85  85  99 MISG      30.11F HX 108
SPARTANBURG    LGT RAIN  77  77 100 W5        30.13S
CLEMSON        SUNNY     87  66  49 NE6       30.12F
GREENVILLE     CLOUDY    83  69  62 NE9       30.14F
GREENWOOD      CLOUDY    85  69  58 NE6       30.11F
GREER          CLOUDY    78  72  81 E8        30.12F
ROCK HILL      MOSUNNY   84  71  65 VRB3      30.12S
LAURENS        MOCLDY    82  72  69 NE7       30.12F


...CENTRAL SOUTH CAROLINA...

CITY           SKY/WX    TMP DP  RH WIND       PRES   REMARKS
COLUMBIA APT   PTSUNNY   90  70  51 E9        30.07F HX  95
COLUMBIA OWENS MOSUNNY   88  71  57 VRB6      30.08F
DARLINGTON     PTSUNNY   86  72  62 E6        30.10F
FLORENCE       PTSUNNY   86  70  58 VRB3      30.09F
MCENTIRE ANGB  PTSUNNY   84  74  72 E7        30.09F
ORANGEBURG     MOSUNNY   86  71  60 E10       30.08S
SUMTER SHAW    PTSUNNY   87  76  69 VRB7      30.08F HX  97
NEWBERRY       FAIR      82  73  74 NE3       30.13F
AIKEN          CLOUDY    82  77  83 NE6       30.11S
BARNWELL       FAIR      90  70  51 SW3       30.07F HX  95
MANNING        CLOUDY    79 N/A N/A MISG      30.10R VSB 3/4
CAMDEN         MOCLDY    84  72  65 E6        30.10F
LANCASTER      FAIR      84  75  74 SE6       30.11F
WINNSBORO      FAIR      84  70  61 E12       30.10F


...EASTERN AND COASTAL SOUTH CAROLINA...

CITY           SKY/WX    TMP DP  RH WIND       PRES   REMARKS
MYRTLE BEACH   LGT RAIN  81  77  89 SW9       30.11S
N MYRTLE BCH   CLOUDY    83  75  77 S10       30.09S THUNDER
CONWAY         FAIR      84  73  70 S7        30.10F
MARION         FAIR      86  72  62 SE3       30.09F
HARTSVILLE     CLOUDY    84  54  34 E5        30.11F
FLORENCE       PTSUNNY   86  70  58 VRB3      30.09F
DARLINGTON     PTSUNNY   86  72  62 E6        30.10F
CHARLESTON APT PTSUNNY   86  74  67 SE9       30.08F
MOUNT PLEASANT FAIR      84  73  70 SE6       30.09F
WALTERBORO     MOCLDY    88  72  58 SE15      30.08S
BEAUFORT       PTSUNNY   87  76  69 S10       30.07S HX  97


...EASTERN GEORGIA...

CITY           SKY/WX    TMP DP  RH WIND       PRES   REMARKS
AUGUSTA BUSH F PTSUNNY   86  71  60 E6        30.06F
AUGUSTA DANIEL MOSUNNY   88  72  58 VRB5      30.08F
THOMSON        PTSUNNY   84  78  82 N3        30.13S HX  95
WASHINGTON     PTSUNNY   84  79  84 NE3       30.09F HX  96
CLAXTON        MOCLDY    90  73  58 CALM      30.05F HX  98
SYLVANIA       PTCLDY    89  74  61 CALM      30.07F HX  99
STATESBORO     CLOUDY    88  73  60 CALM      30.07S HX  95
SAVANNAH       PTSUNNY   88  70  55 E5        30.06F


...SOUTHERN NORTH CAROLINA...

CITY           SKY/WX    TMP DP  RH WIND       PRES   REMARKS
CHARLOTTE      PTSUNNY   82  70  66 N7        30.12F
MONROE         MOSUNNY   84  71  65 VRB6      30.11F
WADESBORO      CLEAR     86  70  58 E3        30.10F
ROCKINGHAM       N/A     84  72  65 SE3       30.10F
RUTHERFORDTON  PTSUNNY   79  72  77 SE3       30.14F
ASHEVILLE      CLOUDY    78  67  68 SW5       30.19F

$$


USA.gov is the U.S. government's official web portal to all federal, state and local government web resources and services.